Location: Absher
(46.5583°N, 107.9840°W)
Time: 05:31:51
(UTC+00:00)

Tiangong - Pass Details

Date: 10 December 2022
Orbit: 382 x 386 km, 41.5° (Epoch: 05 February)

Event Time Altitude Azimuth Distance (km) Brightness Sun altitude
Rises 00:06:14 0° 263° (W) 2,252 3.4 -7.1°
Reaches altitude 10° 00:08:29 10° 251° (WSW) 1,398 2.4 -7.4°
Maximum altitude 00:11:13 27° 190° (S) 769 -0.2 -7.8°
Drops below altitude 10° 00:13:57 10° 130° (SE) 1,396 0.4 -8.3°
Enters shadow 00:15:57 - 119° (ESE) 2,156 1.3 -8.6°
